EW8956 Weather Reports


time (UTC)temp
C
wind
direction
speed
KPH
gust
KPH
rain 1hr
cm
rain 24hr
cm
rain mn
cm
humidity
%
barometer
mb
20260503203052 18 284 0.0 6.4 0.00 0.00 0.00 27 1017.4
20260503201547 17 200 4.8 19.3 0.00 0.00 0.00 27 1017.5
20260503200056 18 210 3.2 9.7 0.00 0.00 0.00 26 1017.8
20260503194544 18 306 3.2 12.9 0.00 0.00 0.00 26 1018.1
20260503193056 18 219 1.6 11.3 0.00 0.00 0.00 27 1018.1
20260503191554 18 269 0.0 8.0 0.00 0.00 0.00 27 1018.3
20260503190050 17 252 0.0 11.3 0.00 0.00 0.00 26 1018.6
20260503184559 17 276 0.0 14.5 0.00 0.00 0.00 28 1018.7
20260503183052 17 0 1.6 4.8 0.00 0.00 0.00 27 1019.0
20260503181607 17 225 0.0 4.8 0.00 0.00 0.00 27 1019.2
20260503180109 17 0 0.0 4.8 0.00 0.00 0.00 28 1019.4
20260503174555 16 0 1.6 8.0 0.00 0.00 0.00 30 1019.5
20260503173100 16 0 0.0 6.4 0.00 0.00 0.00 28 1019.4
20260503171552 16 0 0.0 8.0 0.00 0.00 0.00 30 1019.7
20260503081544 3 0 0.0 0.0 0.00 0.00 0.00 81 1017.7
20260503071555 4 0 0.0 0.0 0.00 0.00 0.00 80 1017.1
20260503054542 5 0 0.0 0.0 0.00 0.00 0.00 86 1016.6
20260503053048 5 0 0.0 1.6 0.00 0.00 0.00 85 1016.5
20260503051549 5 0 0.0 0.0 0.00 0.00 0.00 84 1016.4
20260503050049 6 0 0.0 0.0 0.00 0.00 0.00 83 1016.4
20260503044557 6 0 0.0 1.6 0.00 0.00 0.00 89 1016.4
20260503043046 6 0 0.0 0.0 0.00 0.00 0.00 82 1016.3
20260503041549 6 0 0.0 0.0 0.00 0.00 0.00 82 1016.3
20260503040100 6 0 0.0 0.0 0.00 0.00 0.00 82 1016.1
20260503034558 7 0 0.0 0.0 0.00 0.00 0.00 80 1016.0
20260503033046 7 0 0.0 1.6 0.00 0.00 0.00 78 1015.9
20260503031549 7 0 0.0 0.0 0.00 0.00 0.00 77 1015.6
20260503030116 7 0 0.0 0.0 0.00 0.00 0.00 73 1015.6
20260503024549 8 0 0.0 0.0 0.00 0.00 0.00 73 1015.7
20260503023049 8 0 0.0 0.0 0.00 0.00 0.00 71 1015.5
20260503021546 8 0 0.0 1.6 0.00 0.00 0.00 70 1015.6
20260503020043 9 0 0.0 1.6 0.00 0.00 0.00 69 1015.3
20260503014602 10 0 0.0 1.6 0.00 0.00 0.00 67 1015.1
20260503013053 10 0 0.0 0.0 0.00 0.00 0.00 65 1014.8
20260503011553 11 0 0.0 1.6 0.00 0.00 0.00 71 1014.5
20260503010103 12 0 0.0 0.0 0.00 0.00 0.00 57 1014.2
20260503004551 12 0 0.0 0.0 0.00 0.00 0.00 57 1013.9
20260503003059 12 0 0.0 1.6 0.00 0.00 0.00 52 1013.6
20260503001556 12 0 0.0 1.6 0.00 0.00 0.00 51 1013.7
20260503000110 12 0 0.0 1.6 0.00 0.00 0.00 51 1013.6
20260502234555 13 0 0.0 4.8 0.00 0.00 0.00 51 1013.3
20260502233050 13 0 0.0 1.6 0.00 0.00 0.00 50 1013.1
20260502231549 13 145 0.0 3.2 0.00 0.00 0.00 48 1012.7
20260502230050 13 0 0.0 3.2 0.00 0.00 0.00 45 1012.8
20260502224549 14 0 0.0 1.6 0.00 0.00 0.00 45 1012.5
20260502223049 14 0 0.0 3.2 0.00 0.00 0.00 44 1012.5
20260502221546 14 0 1.6 8.0 0.00 0.00 0.00 42 1012.1
20260502220051 14 0 0.0 4.8 0.00 0.00 0.00 44 1011.9
20260502214558 15 0 1.6 11.3 0.00 0.00 0.00 44 1011.9
20260502213047 15 298 0.0 11.3 0.00 0.00 0.00 45 1011.8
20260502211553 15 119 1.6 11.3 0.00 0.00 0.00 41 1011.8
20260502210043 14 0 0.0 11.3 0.00 0.00 0.00 41 1011.9
20260502204554 14 133 0.0 6.4 0.00 0.00 0.00 42 1012.1